| time (UTC) | temp F | wind direction | speed knots | gust knots | rain 1hr in | rain 24hr in | rain mn in | humidity % | barometer mb |
| 20260507095353 | 57 | 188 | 0.9 | 1.7 | 0.00 | 0.00 | 0.00 | 90 | 1016.0 |
| 20260507094853 | 56 | 188 | 0.9 | 1.7 | 0.00 | 0.00 | 0.00 | 90 | 1016.0 |
| 20260507094352 | 56 | 188 | 0.0 | 0.9 | 0.00 | 0.00 | 0.00 | 90 | 1016.0 |
| 20260507092852 | 57 | 188 | 0.0 | 1.7 | 0.00 | 0.00 | 0.00 | 90 | 1016.2 |
| 20260507092352 | 57 | 187 | 0.9 | 1.7 | 0.00 | 0.00 | 0.00 | 90 | 1016.3 |
| 20260507091352 | 57 | 233 | 0.0 | 0.0 | 0.00 | 0.00 | 0.00 | 90 | 1016.3 |
| 20260507090853 | 57 | 233 | 0.0 | 0.0 | 0.00 | 0.00 | 0.00 | 90 | 1016.4 |
| 20260507090352 | 57 | 233 | 0.0 | 0.0 | 0.00 | 0.00 | 0.00 | 90 | 1016.4 |
| 20260507085853 | 57 | 233 | 0.0 | 0.0 | 0.00 | 0.00 | 0.00 | 90 | 1016.4 |
| 20260507085352 | 58 | 233 | 0.0 | 0.0 | 0.00 | 0.00 | 0.00 | 90 | 1016.5 |
| 20260507084852 | 58 | 233 | 0.0 | 0.0 | 0.00 | 0.00 | 0.00 | 90 | 1016.5 |
| 20260507084352 | 58 | 233 | 0.0 | 0.0 | 0.00 | 0.00 | 0.00 | 90 | 1016.5 |
| 20260507083853 | 58 | 233 | 0.0 | 0.9 | 0.00 | 0.00 | 0.00 | 90 | 1016.6 |
| 20260507083352 | 58 | 233 | 0.0 | 0.9 | 0.00 | 0.00 | 0.00 | 90 | 1016.6 |
| 20260507082852 | 58 | 233 | 0.0 | 1.7 | 0.00 | 0.00 | 0.00 | 90 | 1016.6 |
| 20260507082352 | 58 | 238 | 0.9 | 2.6 | 0.00 | 0.00 | 0.00 | 90 | 1016.6 |
| 20260507081852 | 58 | 259 | 0.9 | 2.6 | 0.00 | 0.00 | 0.00 | 90 | 1016.6 |
| 20260507081352 | 58 | 204 | 0.0 | 0.9 | 0.00 | 0.00 | 0.00 | 90 | 1016.7 |
| 20260507080852 | 58 | 203 | 0.0 | 1.7 | 0.00 | 0.00 | 0.00 | 90 | 1016.6 |
| 20260507080352 | 58 | 228 | 0.9 | 2.6 | 0.00 | 0.00 | 0.00 | 89 | 1016.6 |
| 20260507075853 | 59 | 288 | 1.7 | 2.6 | 0.00 | 0.00 | 0.00 | 89 | 1016.7 |
| 20260507074852 | 59 | 301 | 1.7 | 4.3 | 0.00 | 0.00 | 0.00 | 89 | 1016.8 |
| 20260507074352 | 59 | 298 | 1.7 | 2.6 | 0.00 | 0.00 | 0.00 | 88 | 1016.8 |
| 20260507073352 | 59 | 318 | 1.7 | 7.0 | 0.00 | 0.00 | 0.00 | 88 | 1016.9 |
| 20260507072852 | 59 | 322 | 2.6 | 7.0 | 0.00 | 0.00 | 0.00 | 88 | 1016.9 |
| 20260507072352 | 59 | 350 | 4.3 | 8.7 | 0.00 | 0.00 | 0.00 | 88 | 1016.9 |
| 20260507071852 | 59 | 330 | 3.5 | 7.8 | 0.00 | 0.00 | 0.00 | 88 | 1016.9 |
| 20260507070852 | 59 | 345 | 4.3 | 7.8 | 0.00 | 0.00 | 0.00 | 88 | 1017.0 |
| 20260507070352 | 59 | 293 | 4.3 | 8.7 | 0.00 | 0.00 | 0.00 | 88 | 1017.0 |
| 20260507065852 | 59 | 324 | 2.6 | 7.8 | 0.00 | 0.00 | 0.00 | 89 | 1017.0 |
| 20260507065352 | 59 | 314 | 3.5 | 7.8 | 0.00 | 0.00 | 0.00 | 90 | 1017.0 |
| 20260507064352 | 59 | 318 | 2.6 | 5.2 | 0.00 | 0.00 | 0.00 | 90 | 1017.0 |
| 20260507063852 | 59 | 306 | 0.9 | 2.6 | 0.00 | 0.00 | 0.00 | 90 | 1017.0 |
| 20260507063352 | 59 | 331 | 1.7 | 2.6 | 0.00 | 0.00 | 0.00 | 90 | 1017.1 |
| 20260507062852 | 59 | 253 | 1.7 | 2.6 | 0.00 | 0.00 | 0.00 | 90 | 1017.1 |
| 20260507062352 | 59 | 294 | 1.7 | 2.6 | 0.00 | 0.00 | 0.00 | 90 | 1017.1 |
| 20260507061852 | 59 | 323 | 1.7 | 2.6 | 0.00 | 0.00 | 0.00 | 90 | 1017.1 |
| 20260507061351 | 59 | 337 | 2.6 | 5.2 | 0.00 | 0.00 | 0.00 | 90 | 1017.1 |
| 20260507060853 | 59 | 315 | 1.7 | 4.3 | 0.00 | 0.00 | 0.00 | 90 | 1017.1 |
| 20260507060352 | 59 | 337 | 2.6 | 7.0 | 0.00 | 0.00 | 0.00 | 90 | 1017.1 |
| 20260507055852 | 59 | 342 | 4.3 | 7.8 | 0.00 | 0.00 | 0.00 | 90 | 1017.2 |
| 20260507055352 | 59 | 338 | 3.5 | 7.8 | 0.00 | 0.00 | 0.00 | 90 | 1017.2 |
| 20260507054852 | 59 | 330 | 2.6 | 7.8 | 0.00 | 0.00 | 0.00 | 90 | 1017.1 |
| 20260507054352 | 59 | 336 | 2.6 | 7.0 | 0.00 | 0.00 | 0.00 | 90 | 1017.2 |
| 20260507053852 | 59 | 343 | 3.5 | 7.0 | 0.00 | 0.00 | 0.00 | 90 | 1017.2 |
| 20260507053352 | 59 | 328 | 2.6 | 5.2 | 0.00 | 0.00 | 0.00 | 90 | 1017.2 |
| 20260507052853 | 59 | 323 | 2.6 | 7.0 | 0.00 | 0.00 | 0.00 | 90 | 1017.2 |
| 20260507052352 | 59 | 327 | 2.6 | 7.0 | 0.00 | 0.00 | 0.00 | 89 | 1017.3 |
| 20260507051851 | 59 | 337 | 2.6 | 8.7 | 0.00 | 0.00 | 0.00 | 89 | 1017.2 |
| 20260507051352 | 59 | 317 | 4.3 | 7.8 | 0.00 | 0.00 | 0.00 | 89 | 1017.2 |
| 20260507050852 | 59 | 332 | 2.6 | 7.0 | 0.00 | 0.00 | 0.00 | 89 | 1017.3 |
| 20260507050352 | 59 | 331 | 2.6 | 5.2 | 0.00 | 0.00 | 0.00 | 89 | 1017.2 |
| 20260507045852 | 59 | 347 | 3.5 | 7.0 | 0.00 | 0.00 | 0.00 | 89 | 1017.2 |
| 20260507045351 | 59 | 325 | 2.6 | 7.0 | 0.00 | 0.00 | 0.00 | 88 | 1017.2 |
| 20260507044352 | 60 | 308 | 2.6 | 7.0 | 0.00 | 0.00 | 0.00 | 89 | 1017.1 |
| 20260507043852 | 60 | 315 | 1.7 | 4.3 | 0.00 | 0.00 | 0.00 | 89 | 1017.1 |
| 20260507043352 | 60 | 301 | 1.7 | 6.1 | 0.00 | 0.00 | 0.00 | 89 | 1017.0 |
| 20260507042352 | 60 | 246 | 1.7 | 5.2 | 0.00 | 0.00 | 0.00 | 89 | 1017.0 |
| 20260507041852 | 60 | 251 | 2.6 | 6.1 | 0.00 | 0.00 | 0.00 | 88 | 1017.0 |
| 20260507041353 | 60 | 319 | 2.6 | 6.1 | 0.00 | 0.00 | 0.00 | 88 | 1017.0 |
| 20260507040353 | 60 | 299 | 2.6 | 5.2 | 0.00 | 0.00 | 0.00 | 88 | 1016.9 |
| 20260507035853 | 60 | 340 | 3.5 | 7.8 | 0.00 | 0.00 | 0.00 | 89 | 1016.9 |
| 20260507035352 | 60 | 316 | 3.5 | 7.0 | 0.00 | 0.00 | 0.00 | 88 | 1016.8 |
| 20260507034852 | 60 | 313 | 2.6 | 6.1 | 0.00 | 0.00 | 0.00 | 88 | 1016.7 |
| 20260507034352 | 60 | 296 | 1.7 | 5.2 | 0.00 | 0.00 | 0.00 | 88 | 1016.7 |
| 20260507033852 | 60 | 302 | 2.6 | 7.0 | 0.00 | 0.00 | 0.00 | 88 | 1016.7 |
| 20260507033352 | 60 | 318 | 1.7 | 4.3 | 0.00 | 0.00 | 0.00 | 88 | 1016.5 |
| 20260507032351 | 60 | 283 | 1.7 | 7.0 | 0.00 | 0.00 | 0.00 | 87 | 1016.6 |
| 20260507031352 | 60 | 328 | 5.2 | 7.8 | 0.00 | 0.00 | 0.00 | 88 | 1016.4 |
| 20260507030852 | 60 | 314 | 2.6 | 7.8 | 0.00 | 0.00 | 0.00 | 88 | 1016.4 |
| 20260507030352 | 60 | 283 | 5.2 | 8.7 | 0.00 | 0.00 | 0.00 | 88 | 1016.4 |
| 20260507025852 | 60 | 323 | 4.3 | 8.7 | 0.00 | 0.00 | 0.00 | 87 | 1016.3 |
| 20260507025352 | 61 | 274 | 5.2 | 7.8 | 0.00 | 0.00 | 0.00 | 87 | 1016.3 |
| 20260507024852 | 61 | 288 | 3.5 | 8.7 | 0.00 | 0.00 | 0.00 | 86 | 1016.3 |
| 20260507024352 | 61 | 276 | 6.1 | 10.4 | 0.00 | 0.00 | 0.00 | 85 | 1016.3 |
| 20260507023352 | 61 | 270 | 5.2 | 10.4 | 0.00 | 0.00 | 0.00 | 84 | 1016.1 |
| 20260507022852 | 61 | 252 | 5.2 | 11.3 | 0.00 | 0.00 | 0.00 | 84 | 1016.1 |
| 20260507022352 | 62 | 283 | 5.2 | 10.4 | 0.00 | 0.00 | 0.00 | 83 | 1016.1 |
| 20260507021852 | 62 | 249 | 4.3 | 10.4 | 0.00 | 0.00 | 0.00 | 83 | 1016.0 |
| 20260507021352 | 62 | 246 | 4.3 | 10.4 | 0.00 | 0.00 | 0.00 | 83 | 1016.0 |
| 20260507020851 | 62 | 285 | 4.3 | 10.4 | 0.00 | 0.00 | 0.00 | 82 | 1016.0 |
| 20260507020352 | 62 | 250 | 3.5 | 8.7 | 0.00 | 0.00 | 0.00 | 82 | 1016.0 |
| 20260507015852 | 63 | 356 | 4.3 | 10.4 | 0.00 | 0.00 | 0.00 | 82 | 1015.9 |
| 20260507015352 | 63 | 333 | 4.3 | 8.7 | 0.00 | 0.00 | 0.00 | 82 | 1016.0 |
| 20260507014852 | 63 | 335 | 4.3 | 10.4 | 0.00 | 0.00 | 0.00 | 82 | 1016.0 |
| 20260507014352 | 63 | 350 | 5.2 | 10.4 | 0.00 | 0.00 | 0.00 | 82 | 1016.0 |
| 20260507013852 | 63 | 336 | 5.2 | 10.4 | 0.00 | 0.00 | 0.00 | 81 | 1015.9 |
| 20260507012852 | 63 | 293 | 5.2 | 11.3 | 0.00 | 0.00 | 0.00 | 81 | 1015.9 |
| 20260507012352 | 64 | 328 | 5.2 | 10.4 | 0.00 | 0.00 | 0.00 | 81 | 1015.9 |
| 20260507011352 | 63 | 278 | 6.1 | 13.9 | 0.00 | 0.00 | 0.00 | 81 | 1015.9 |
| 20260507010851 | 63 | 284 | 6.1 | 10.4 | 0.00 | 0.00 | 0.00 | 80 | 1015.9 |
| 20260507005852 | 64 | 311 | 6.1 | 12.2 | 0.00 | 0.00 | 0.00 | 81 | 1015.8 |
| 20260507005352 | 64 | 314 | 6.1 | 10.4 | 0.00 | 0.00 | 0.00 | 81 | 1015.8 |
| 20260507004852 | 64 | 308 | 5.2 | 12.2 | 0.00 | 0.00 | 0.00 | 81 | 1015.8 |
| 20260507003852 | 64 | 351 | 7.0 | 12.2 | 0.00 | 0.00 | 0.00 | 80 | 1015.9 |
| 20260507003352 | 64 | 265 | 6.1 | 11.3 | 0.00 | 0.00 | 0.00 | 80 | 1016.0 |
| 20260507002352 | 64 | 339 | 5.2 | 10.4 | 0.00 | 0.00 | 0.00 | 80 | 1015.9 |
| 20260507001852 | 64 | 307 | 6.1 | 10.4 | 0.00 | 0.00 | 0.00 | 79 | 1016.0 |
| 20260507001352 | 65 | 347 | 6.1 | 10.4 | 0.00 | 0.00 | 0.00 | 79 | 1015.9 |
| 20260507000852 | 65 | 335 | 6.1 | 11.3 | 0.00 | 0.00 | 0.00 | 79 | 1015.9 |
| 20260507000353 | 65 | 333 | 6.1 | 11.3 | 0.00 | 0.00 | 0.00 | 79 | 1015.9 |
| 20260506235851 | 65 | 328 | 5.2 | 10.4 | 0.00 | 0.00 | 0.00 | 79 | 1015.9 |
| 20260506235352 | 65 | 325 | 7.0 | 12.2 | 0.00 | 0.00 | 0.00 | 79 | 1015.9 |
| 20260506234852 | 65 | 339 | 7.0 | 12.2 | 0.00 | 0.00 | 0.00 | 78 | 1015.9 |
| 20260506234352 | 65 | 347 | 5.2 | 11.3 | 0.00 | 0.00 | 0.00 | 79 | 1016.0 |
| 20260506233852 | 65 | 306 | 5.2 | 10.4 | 0.00 | 0.00 | 0.00 | 79 | 1015.9 |
| 20260506233352 | 65 | 352 | 5.2 | 11.3 | 0.00 | 0.00 | 0.00 | 77 | 1015.9 |
| 20260506232852 | 66 | 333 | 6.1 | 10.4 | 0.00 | 0.00 | 0.00 | 77 | 1016.0 |
| 20260506232351 | 66 | 351 | 7.8 | 11.3 | 0.00 | 0.00 | 0.00 | 75 | 1015.9 |
| 20260506231852 | 66 | 344 | 5.2 | 10.4 | 0.00 | 0.00 | 0.00 | 75 | 1015.9 |
| 20260506231351 | 66 | 325 | 5.2 | 10.4 | 0.00 | 0.00 | 0.00 | 75 | 1016.0 |
| 20260506230852 | 66 | 334 | 5.2 | 11.3 | 0.00 | 0.00 | 0.00 | 74 | 1016.1 |
| 20260506230352 | 66 | 317 | 4.3 | 10.4 | 0.00 | 0.00 | 0.00 | 75 | 1016.1 |
| 20260506225852 | 66 | 331 | 4.3 | 10.4 | 0.00 | 0.00 | 0.00 | 75 | 1016.1 |
| 20260506224852 | 66 | 324 | 5.2 | 10.4 | 0.00 | 0.00 | 0.00 | 75 | 1016.2 |
| 20260506223852 | 66 | 267 | 6.1 | 12.2 | 0.00 | 0.00 | 0.00 | 75 | 1016.3 |
| 20260506223352 | 66 | 273 | 6.1 | 10.4 | 0.00 | 0.00 | 0.00 | 75 | 1016.4 |
| 20260506222852 | 66 | 305 | 7.0 | 11.3 | 0.00 | 0.00 | 0.00 | 74 | 1016.4 |
| 20260506222352 | 66 | 318 | 5.2 | 10.4 | 0.00 | 0.00 | 0.00 | 74 | 1016.4 |
| 20260506221351 | 66 | 293 | 6.1 | 12.2 | 0.00 | 0.00 | 0.00 | 75 | 1016.5 |
| 20260506220852 | 66 | 343 | 6.1 | 12.2 | 0.00 | 0.00 | 0.00 | 75 | 1016.6 |
| 20260506220352 | 66 | 341 | 5.2 | 11.3 | 0.00 | 0.00 | 0.00 | 76 | 1016.6 |
| 20260506215852 | 66 | 331 | 5.2 | 12.2 | 0.00 | 0.00 | 0.00 | 76 | 1016.7 |
| 20260506215352 | 66 | 341 | 5.2 | 10.4 | 0.00 | 0.00 | 0.00 | 77 | 1016.8 |
| 20260506214852 | 66 | 320 | 6.1 | 12.2 | 0.00 | 0.00 | 0.00 | 76 | 1016.8 |
| 20260506214352 | 66 | 334 | 6.1 | 11.3 | 0.00 | 0.00 | 0.00 | 77 | 1016.9 |
| 20260506213851 | 66 | 333 | 6.1 | 12.2 | 0.00 | 0.00 | 0.00 | 76 | 1016.9 |
| 20260506213352 | 66 | 349 | 6.1 | 13.0 | 0.00 | 0.00 | 0.00 | 77 | 1017.0 |
| 20260506212851 | 66 | 336 | 5.2 | 11.3 | 0.00 | 0.00 | 0.00 | 77 | 1017.0 |
| 20260506212352 | 66 | 335 | 5.2 | 10.4 | 0.00 | 0.00 | 0.00 | 77 | 1017.0 |
| 20260506211852 | 66 | 320 | 6.1 | 12.2 | 0.00 | 0.00 | 0.00 | 77 | 1017.1 |
| 20260506211352 | 66 | 291 | 5.2 | 13.9 | 0.00 | 0.00 | 0.00 | 78 | 1017.2 |
| 20260506210852 | 65 | 300 | 6.1 | 10.4 | 0.00 | 0.00 | 0.00 | 78 | 1017.1 |
| 20260506210352 | 65 | 320 | 6.1 | 11.3 | 0.00 | 0.00 | 0.00 | 77 | 1017.2 |
| 20260506205852 | 66 | 300 | 5.2 | 11.3 | 0.00 | 0.00 | 0.00 | 77 | 1017.2 |
| 20260506204852 | 66 | 310 | 6.1 | 10.4 | 0.00 | 0.00 | 0.00 | 77 | 1017.2 |
| 20260506204352 | 66 | 333 | 5.2 | 10.4 | 0.00 | 0.00 | 0.00 | 77 | 1017.3 |
| 20260506203852 | 66 | 337 | 4.3 | 10.4 | 0.00 | 0.00 | 0.00 | 78 | 1017.3 |
| 20260506202852 | 66 | 338 | 5.2 | 10.4 | 0.00 | 0.00 | 0.00 | 77 | 1017.3 |
| 20260506202351 | 66 | 319 | 6.1 | 10.4 | 0.00 | 0.00 | 0.00 | 77 | 1017.4 |
| 20260506201852 | 66 | 345 | 6.1 | 10.4 | 0.00 | 0.00 | 0.00 | 77 | 1017.3 |
| 20260506200851 | 66 | 344 | 5.2 | 12.2 | 0.00 | 0.00 | 0.00 | 76 | 1017.5 |
| 20260506200352 | 66 | 330 | 4.3 | 10.4 | 0.00 | 0.00 | 0.00 | 75 | 1017.5 |
| 20260506195851 | 66 | 352 | 5.2 | 11.3 | 0.00 | 0.00 | 0.00 | 75 | 1017.5 |
| 20260506195352 | 66 | 308 | 5.2 | 8.7 | 0.00 | 0.00 | 0.00 | 75 | 1017.5 |
| 20260506194852 | 66 | 329 | 4.3 | 8.7 | 0.00 | 0.00 | 0.00 | 75 | 1017.6 |
| 20260506194352 | 66 | 306 | 5.2 | 8.7 | 0.00 | 0.00 | 0.00 | 75 | 1017.7 |
| 20260506193852 | 66 | 334 | 4.3 | 10.4 | 0.00 | 0.00 | 0.00 | 76 | 1017.8 |
| 20260506193352 | 65 | 330 | 6.1 | 10.4 | 0.00 | 0.00 | 0.00 | 76 | 1017.7 |
| 20260506192852 | 66 | 333 | 5.2 | 10.4 | 0.00 | 0.00 | 0.00 | 76 | 1017.8 |
| 20260506192352 | 66 | 350 | 6.1 | 11.3 | 0.00 | 0.00 | 0.00 | 75 | 1017.8 |
| 20260506191852 | 65 | 328 | 4.3 | 10.4 | 0.00 | 0.00 | 0.00 | 76 | 1017.9 |
| 20260506191352 | 65 | 356 | 4.3 | 10.4 | 0.00 | 0.00 | 0.00 | 76 | 1018.0 |
| 20260506190852 | 65 | 293 | 4.3 | 10.4 | 0.00 | 0.00 | 0.00 | 75 | 1018.0 |
| 20260506190351 | 65 | 328 | 6.1 | 10.4 | 0.00 | 0.00 | 0.00 | 74 | 1018.0 |
| 20260506185852 | 65 | 336 | 5.2 | 10.4 | 0.00 | 0.00 | 0.00 | 74 | 1018.0 |
| 20260506185352 | 65 | 324 | 5.2 | 10.4 | 0.00 | 0.00 | 0.00 | 74 | 1018.0 |
| 20260506184852 | 66 | 336 | 5.2 | 8.7 | 0.00 | 0.00 | 0.00 | 72 | 1018.1 |
| 20260506184352 | 65 | 348 | 4.3 | 10.4 | 0.00 | 0.00 | 0.00 | 72 | 1018.2 |
| 20260506183852 | 65 | 351 | 5.2 | 10.4 | 0.00 | 0.00 | 0.00 | 72 | 1018.2 |
| 20260506183352 | 65 | 323 | 5.2 | 7.8 | 0.00 | 0.00 | 0.00 | 72 | 1018.2 |
| 20260506182852 | 65 | 354 | 5.2 | 10.4 | 0.00 | 0.00 | 0.00 | 71 | 1018.2 |
| 20260506182352 | 65 | 348 | 6.1 | 10.4 | 0.00 | 0.00 | 0.00 | 70 | 1018.3 |
| 20260506181851 | 65 | 331 | 5.2 | 10.4 | 0.00 | 0.00 | 0.00 | 71 | 1018.2 |
| 20260506181353 | 65 | 327 | 4.3 | 8.7 | 0.00 | 0.00 | 0.00 | 69 | 1018.3 |
| 20260506180852 | 65 | 339 | 4.3 | 7.8 | 0.00 | 0.00 | 0.00 | 71 | 1018.4 |
| 20260506180352 | 65 | 329 | 4.3 | 10.4 | 0.00 | 0.00 | 0.00 | 70 | 1018.4 |
| 20260506175352 | 64 | 324 | 4.3 | 7.8 | 0.00 | 0.00 | 0.00 | 72 | 1018.4 |
| 20260506174852 | 64 | 326 | 4.3 | 7.8 | 0.00 | 0.00 | 0.00 | 75 | 1018.3 |
| 20260506174352 | 63 | 348 | 5.2 | 7.8 | 0.00 | 0.00 | 0.00 | 75 | 1018.3 |
| 20260506173851 | 63 | 314 | 4.3 | 7.8 | 0.00 | 0.00 | 0.00 | 78 | 1018.2 |
| 20260506173352 | 63 | 305 | 4.3 | 8.7 | 0.00 | 0.00 | 0.00 | 78 | 1018.3 |
| 20260506172351 | 63 | 305 | 4.3 | 7.8 | 0.00 | 0.00 | 0.00 | 80 | 1018.3 |
| 20260506171351 | 63 | 343 | 4.3 | 7.8 | 0.00 | 0.00 | 0.00 | 79 | 1018.3 |
| 20260506170852 | 63 | 290 | 5.2 | 7.8 | 0.00 | 0.00 | 0.00 | 78 | 1018.3 |
| 20260506170352 | 63 | 320 | 2.6 | 7.0 | 0.00 | 0.00 | 0.00 | 78 | 1018.2 |
| 20260506165851 | 63 | 312 | 2.6 | 8.7 | 0.00 | 0.00 | 0.00 | 78 | 1018.2 |
| 20260506165351 | 63 | 332 | 3.5 | 5.2 | 0.00 | 0.00 | 0.00 | 78 | 1018.1 |
| 20260506164852 | 63 | 297 | 4.3 | 6.1 | 0.00 | 0.00 | 0.00 | 77 | 1018.1 |
| 20260506164352 | 63 | 300 | 3.5 | 6.1 | 0.00 | 0.00 | 0.00 | 78 | 1018.2 |
| 20260506163852 | 63 | 278 | 3.5 | 7.0 | 0.00 | 0.00 | 0.00 | 78 | 1018.1 |
| 20260506163352 | 62 | 293 | 2.6 | 6.1 | 0.00 | 0.00 | 0.00 | 78 | 1018.1 |
| 20260506162852 | 62 | 277 | 4.3 | 7.0 | 0.00 | 0.00 | 0.00 | 77 | 1018.2 |
| 20260506162351 | 63 | 294 | 2.6 | 6.1 | 0.00 | 0.00 | 0.00 | 77 | 1018.1 |
| 20260506161351 | 64 | 298 | 1.7 | 5.2 | 0.00 | 0.00 | 0.00 | 74 | 1018.1 |
| 20260506160852 | 64 | 339 | 1.7 | 4.3 | 0.00 | 0.00 | 0.00 | 74 | 1018.1 |
| 20260506160351 | 64 | 100 | 2.6 | 6.1 | 0.00 | 0.00 | 0.00 | 76 | 1018.0 |
| 20260506155352 | 64 | 68 | 2.6 | 5.2 | 0.00 | 0.00 | 0.00 | 76 | 1018.0 |
| 20260506154852 | 63 | 103 | 1.7 | 6.1 | 0.00 | 0.00 | 0.00 | 77 | 1018.0 |
| 20260506154352 | 63 | 86 | 2.6 | 6.1 | 0.00 | 0.00 | 0.00 | 78 | 1018.0 |
| 20260506153852 | 63 | 61 | 1.7 | 2.6 | 0.00 | 0.00 | 0.00 | 79 | 1018.0 |
| 20260506153352 | 63 | 118 | 0.9 | 5.2 | 0.00 | 0.00 | 0.00 | 79 | 1018.0 |
| 20260506152851 | 63 | 30 | 1.7 | 2.6 | 0.00 | 0.00 | 0.00 | 79 | 1018.1 |
| 20260506152352 | 62 | 101 | 1.7 | 2.6 | 0.00 | 0.00 | 0.00 | 80 | 1018.1 |
| 20260506151852 | 62 | 80 | 0.9 | 1.7 | 0.00 | 0.00 | 0.00 | 81 | 1018.2 |
| 20260506151352 | 62 | 90 | 0.9 | 2.6 | 0.00 | 0.00 | 0.00 | 81 | 1018.2 |
| 20260506150852 | 61 | 43 | 1.7 | 2.6 | 0.00 | 0.00 | 0.00 | 82 | 1018.1 |
| 20260506150352 | 61 | 97 | 0.9 | 2.6 | 0.00 | 0.00 | 0.00 | 82 | 1018.2 |
| 20260506145852 | 60 | 108 | 0.9 | 2.6 | 0.00 | 0.00 | 0.00 | 83 | 1018.2 |
| 20260506145352 | 60 | 112 | 1.7 | 2.6 | 0.00 | 0.00 | 0.00 | 83 | 1018.1 |
| 20260506144852 | 60 | 81 | 1.7 | 4.3 | 0.00 | 0.00 | 0.00 | 83 | 1018.1 |
| 20260506144352 | 60 | 85 | 1.7 | 2.6 | 0.00 | 0.00 | 0.00 | 84 | 1018.1 |
| 20260506143852 | 59 | 91 | 1.7 | 2.6 | 0.00 | 0.00 | 0.00 | 84 | 1018.0 |
| 20260506143351 | 59 | 91 | 1.7 | 2.6 | 0.00 | 0.00 | 0.00 | 85 | 1018.0 |
| 20260506142852 | 59 | 72 | 0.9 | 2.6 | 0.00 | 0.00 | 0.00 | 85 | 1018.0 |
| 20260506142352 | 58 | 46 | 1.7 | 2.6 | 0.00 | 0.00 | 0.00 | 86 | 1018.0 |
| 20260506141851 | 58 | 91 | 0.9 | 2.6 | 0.00 | 0.00 | 0.00 | 87 | 1018.0 |
| 20260506141352 | 58 | 75 | 0.9 | 2.6 | 0.00 | 0.00 | 0.00 | 88 | 1017.9 |
| 20260506140851 | 57 | 51 | 0.0 | 1.7 | 0.00 | 0.00 | 0.00 | 89 | 1017.9 |
| 20260506140353 | 56 | 187 | 0.9 | 1.7 | 0.00 | 0.00 | 0.00 | 90 | 1017.9 |
| 20260506135852 | 56 | 187 | 0.0 | 0.9 | 0.00 | 0.00 | 0.00 | 90 | 1017.9 |
| 20260506134852 | 55 | 187 | 0.0 | 0.9 | 0.00 | 0.00 | 0.00 | 90 | 1017.8 |
| 20260506134352 | 55 | 187 | 0.0 | 0.9 | 0.00 | 0.00 | 0.00 | 90 | 1017.8 |
| 20260506133352 | 54 | 187 | 0.0 | 0.0 | 0.00 | 0.00 | 0.00 | 90 | 1017.7 |
| 20260506132852 | 54 | 187 | 0.0 | 0.9 | 0.00 | 0.00 | 0.00 | 90 | 1017.7 |
| 20260506132352 | 53 | 187 | 0.9 | 0.9 | 0.00 | 0.00 | 0.00 | 90 | 1017.7 |
| 20260506131852 | 53 | 187 | 0.9 | 1.7 | 0.00 | 0.00 | 0.00 | 90 | 1017.6 |
| 20260506131352 | 53 | 187 | 0.9 | 0.9 | 0.00 | 0.00 | 0.00 | 89 | 1017.5 |
| 20260506130851 | 54 | 187 | 0.9 | 1.7 | 0.00 | 0.00 | 0.00 | 89 | 1017.5 |
| 20260506130352 | 54 | 187 | 0.9 | 0.9 | 0.00 | 0.00 | 0.00 | 89 | 1017.4 |
| 20260506125851 | 54 | 187 | 0.0 | 0.9 | 0.00 | 0.00 | 0.00 | 89 | 1017.4 |
| 20260506125351 | 54 | 187 | 0.0 | 0.9 | 0.00 | 0.00 | 0.00 | 90 | 1017.3 |
| 20260506124352 | 53 | 187 | 0.9 | 1.7 | 0.00 | 0.00 | 0.00 | 89 | 1017.1 |
| 20260506123851 | 54 | 187 | 0.9 | 1.7 | 0.00 | 0.00 | 0.00 | 89 | 1017.1 |
| 20260506123352 | 54 | 187 | 0.9 | 2.6 | 0.00 | 0.00 | 0.00 | 89 | 1017.1 |
| 20260506122852 | 54 | 175 | 0.9 | 2.6 | 0.00 | 0.00 | 0.00 | 89 | 1017.1 |
| 20260506122352 | 54 | 183 | 0.9 | 1.7 | 0.00 | 0.00 | 0.00 | 89 | 1017.0 |
| 20260506120851 | 54 | 184 | 0.9 | 1.7 | 0.00 | 0.00 | 0.00 | 88 | 1017.0 |
| 20260506120352 | 54 | 186 | 0.9 | 2.6 | 0.00 | 0.00 | 0.00 | 88 | 1017.0 |
| 20260506115852 | 54 | 186 | 0.9 | 2.6 | 0.00 | 0.00 | 0.00 | 88 | 1017.0 |
| 20260506115352 | 54 | 186 | 0.9 | 1.7 | 0.00 | 0.00 | 0.00 | 88 | 1016.9 |
| 20260506114852 | 54 | 180 | 0.9 | 1.7 | 0.00 | 0.00 | 0.00 | 88 | 1016.9 |
| 20260506114352 | 54 | 181 | 0.9 | 2.6 | 0.00 | 0.00 | 0.00 | 88 | 1016.9 |
| 20260506113851 | 54 | 186 | 0.9 | 1.7 | 0.00 | 0.00 | 0.00 | 88 | 1016.9 |
| 20260506113351 | 54 | 186 | 0.9 | 1.7 | 0.00 | 0.00 | 0.00 | 88 | 1016.8 |
| 20260506112852 | 54 | 186 | 0.9 | 1.7 | 0.00 | 0.00 | 0.00 | 87 | 1016.8 |
| 20260506112352 | 54 | 188 | 0.9 | 2.6 | 0.00 | 0.00 | 0.00 | 87 | 1016.7 |
| 20260506111851 | 54 | 186 | 0.9 | 1.7 | 0.00 | 0.00 | 0.00 | 87 | 1016.8 |
| 20260506110851 | 54 | 186 | 0.0 | 0.9 | 0.00 | 0.00 | 0.00 | 87 | 1016.8 |
| 20260506110352 | 54 | 186 | 0.9 | 1.7 | 0.00 | 0.00 | 0.00 | 87 | 1016.8 |
| 20260506105852 | 54 | 186 | 0.9 | 1.7 | 0.00 | 0.00 | 0.00 | 87 | 1016.8 |
| 20260506105352 | 55 | 186 | 0.9 | 1.7 | 0.00 | 0.00 | 0.00 | 86 | 1016.8 |
| 20260506104851 | 55 | 186 | 1.7 | 2.6 | 0.00 | 0.00 | 0.00 | 87 | 1016.8 |
| 20260506104351 | 55 | 158 | 0.9 | 1.7 | 0.00 | 0.00 | 0.00 | 87 | 1016.9 |
| 20260506103852 | 55 | 174 | 0.9 | 2.6 | 0.00 | 0.00 | 0.00 | 88 | 1016.9 |
| 20260506103351 | 54 | 187 | 0.9 | 1.7 | 0.00 | 0.00 | 0.00 | 88 | 1016.9 |
| 20260506102852 | 54 | 187 | 0.9 | 1.7 | 0.00 | 0.00 | 0.00 | 87 | 1016.8 |
| 20260506102352 | 54 | 187 | 0.9 | 2.6 | 0.00 | 0.00 | 0.00 | 87 | 1016.8 |
| 20260506101852 | 55 | 187 | 0.9 | 1.7 | 0.00 | 0.00 | 0.00 | 88 | 1016.8 |
| 20260506101351 | 55 | 187 | 0.9 | 1.7 | 0.00 | 0.00 | 0.00 | 88 | 1016.8 |
| 20260506100351 | 55 | 187 | 0.9 | 1.7 | 0.00 | 0.00 | 0.00 | 88 | 1016.8 |
| 20260506095852 | 55 | 187 | 0.9 | 1.7 | 0.00 | 0.00 | 0.00 | 88 | 1016.9 |